Date String (YYYY-MM-DD hh:mm:ss) UTC,Instrument flags,Ambient pressure (hPa),Sample flow (lpm),Bypass flow (lpm),Sample temperature (°C),Ambient temperature (°C),ASC tube jacket temperature (°C),LED temperature (°C),Box temperature (°C),Sample RH (%),Span deviation,Mass concentration (μg/m³),Mass concentration (μg/m³),Mass concentration (μg/m³)
DateTimeUTC,F1_M11,P_M11,Q1_M11,Q2_M11,T1_M11,T2_M11,T3_M11,T4_M11,T5_M11,U1_M11,ZSPAN_M11,X2_M11,X0_M11,X1_M11
2022-05-20 22:00:00,,0823.3,5.00,0.00,23.4,22.3,00.0,32.4,25.2,19.7,0000.0,0000.72,0001.02,0000.66
2022-05-20 22:01:00,,0823.3,5.00,0.00,23.4,22.3,00.0,32.4,25.2,19.7,0000.0,0000.73,0001.04,0000.67
2022-05-20 22:02:00,,0823.1,5.01,0.00,23.4,22.3,00.0,32.4,25.2,19.7,0000.0,0000.74,0001.04,0000.67
2022-05-20 22:03:00,,0823.0,5.00,0.00,23.4,22.3,00.0,32.4,25.2,19.7,0000.0,0000.73,0001.03,0000.69
2022-05-20 22:04:00,,0823.0,4.99,0.00,23.4,22.3,00.0,32.4,25.2,19.7,0000.0,0000.75,0001.05,0000.70
2022-05-20 22:05:00,,0823.2,4.99,0.00,23.4,22.3,00.0,32.4,25.2,19.7,0000.0,0000.76,0001.03,0000.73
2022-05-20 22:06:00,,0823.3,5.00,0.00,23.4,22.3,00.0,32.4,25.2,19.7,0000.0,0000.74,0000.91,0000.74
2022-05-20 22:07:00,,0823.4,5.01,0.00,23.3,22.3,00.0,32.4,25.2,19.8,0000.0,0000.75,0000.91,0000.74
2022-05-20 22:08:00,,0823.3,5.00,0.00,23.3,22.3,00.0,32.4,25.2,19.8,0000.0,0000.76,0000.92,0000.76
2022-05-20 22:09:00,,0823.4,4.99,0.00,23.3,22.3,00.0,32.4,25.1,19.8,0000.0,0000.78,0000.94,0000.77
2022-05-20 22:10:00,,0823.4,5.00,0.00,23.3,22.3,00.0,32.4,25.1,19.8,0000.0,0000.80,0000.97,0000.78
2022-05-20 22:11:00,,0823.4,5.00,0.00,23.3,22.3,00.0,32.3,25.1,19.8,0000.0,0000.81,0000.99,0000.80
2022-05-20 22:12:00,,0823.3,5.00,0.00,23.3,22.2,00.0,32.3,25.1,19.8,0000.0,0000.82,0001.00,0000.81
2022-05-20 22:13:00,,0823.3,5.01,0.00,23.3,22.2,00.0,32.3,25.1,19.8,0000.0,0000.83,0001.01,0000.81
2022-05-20 22:14:00,,0823.3,5.00,0.00,23.3,22.2,00.0,32.3,25.1,19.8,0000.0,0000.82,0001.00,0000.81
2022-05-20 22:15:00,,0823.2,4.99,0.00,23.3,22.2,00.0,32.3,25.1,19.8,0000.0,0000.81,0000.98,0000.80
2022-05-20 22:16:00,,0823.1,5.01,0.00,23.3,22.2,00.0,32.3,25.1,19.8,0000.0,0000.80,0000.97,0000.78
2022-05-20 22:17:00,,0823.1,4.99,0.00,23.3,22.2,00.0,32.3,25.1,19.8,0000.0,0000.79,0000.96,0000.78
2022-05-20 22:18:00,,0823.1,5.00,0.00,23.3,22.1,00.0,32.3,25.1,19.8,0000.0,0000.78,0000.95,0000.77
2022-05-20 22:19:00,,0823.2,5.00,0.00,23.2,22.1,00.0,32.3,25.0,19.8,0000.0,0000.78,0000.95,0000.76
2022-05-20 22:20:00,,0823.3,5.00,0.00,23.2,22.1,00.0,32.3,25.0,19.8,0000.0,0000.77,0000.94,0000.76
2022-05-20 22:21:00,,0823.4,5.01,0.00,23.2,22.1,00.0,32.3,25.0,19.8,0000.0,0000.76,0000.93,0000.74
2022-05-20 22:22:00,,0823.3,5.00,0.00,23.2,22.1,00.0,32.3,25.0,19.9,0000.0,0000.75,0000.94,0000.73
2022-05-20 22:23:00,,0823.3,5.00,0.00,23.2,22.1,00.0,32.2,25.0,19.9,0000.0,0000.74,0000.92,0000.73
2022-05-20 22:24:00,,0823.4,5.00,0.00,23.2,22.1,00.0,32.2,25.0,19.9,0000.0,0000.74,0000.91,0000.72
2022-05-20 22:25:00,,0823.4,5.00,0.00,23.2,22.1,00.0,32.2,25.0,19.9,0000.0,0000.74,0000.91,0000.72
2022-05-20 22:26:00,,0823.4,5.00,0.00,23.2,22.1,00.0,32.2,25.0,19.9,0000.0,0000.75,0000.93,0000.73
2022-05-20 22:27:00,,0823.4,5.01,0.00,23.1,22.0,00.0,32.2,24.9,19.9,0000.0,0000.77,0000.95,0000.75
2022-05-20 22:28:00,,0823.4,5.00,0.00,23.1,22.0,00.0,32.2,24.9,19.9,0000.0,0000.77,0000.95,0000.75
2022-05-20 22:29:00,,0823.5,5.00,0.00,23.1,22.0,00.0,32.2,24.9,20.0,0000.0,0000.78,0000.96,0000.76
2022-05-20 22:30:00,,0823.5,5.00,0.00,23.1,22.0,00.0,32.2,24.9,20.0,0000.0,0000.80,0001.00,0000.76
2022-05-20 22:31:00,,0823.5,4.99,0.00,23.1,22.0,00.0,32.2,24.9,20.0,0000.0,0000.81,0001.04,0000.76
2022-05-20 22:32:00,,0823.6,5.00,0.00,23.1,22.0,00.0,32.1,24.9,20.0,0000.0,0000.80,0001.02,0000.76
2022-05-20 22:33:00,,0823.6,5.00,0.00,23.1,22.0,00.0,32.1,24.9,20.0,0000.0,0000.80,0001.02,0000.75
2022-05-20 22:34:00,,0823.6,5.00,0.00,23.1,22.0,00.0,32.1,24.9,20.1,0000.0,0000.80,0001.01,0000.75
2022-05-20 22:35:00,,0823.6,5.00,0.00,23.0,21.9,00.0,32.1,24.9,20.1,0000.0,0000.80,0001.01,0000.75
2022-05-20 22:36:00,,0823.6,5.00,0.00,23.0,21.9,00.0,32.1,24.9,20.3,0000.0,0000.80,0001.01,0000.75
2022-05-20 22:37:00,,0823.5,5.00,0.00,23.0,21.9,00.0,32.1,24.9,21.9,0000.0,0000.81,0001.03,0000.75
2022-05-20 22:38:00,,0823.6,5.01,0.00,23.0,22.0,00.0,32.1,24.9,22.2,0000.0,0000.81,0001.03,0000.76
2022-05-20 22:39:00,,0823.6,5.00,0.00,23.0,22.0,00.0,32.1,24.9,20.8,0000.0,0000.83,0001.06,0000.77
2022-05-20 22:40:00,,0823.7,4.99,0.00,23.0,21.9,00.0,32.1,24.9,20.5,0000.0,0000.85,0001.09,0000.78
2022-05-20 22:41:00,,0823.7,5.00,0.00,23.0,21.9,00.0,32.1,24.8,20.4,0000.0,0000.84,0001.05,0000.79
2022-05-20 22:42:00,,0823.7,4.99,0.00,23.0,21.9,00.0,32.1,24.8,20.3,0000.0,0000.85,0001.04,0000.81
2022-05-20 22:43:00,,0823.6,5.00,0.00,23.0,21.9,00.0,32.0,24.8,20.3,0000.0,0000.88,0001.09,0000.84
2022-05-20 22:44:00,,0823.6,5.00,0.00,23.0,21.9,00.0,32.0,24.8,20.3,0000.0,0000.89,0001.08,0000.85
2022-05-20 22:45:00,,0823.5,5.01,0.00,23.0,21.9,00.0,32.0,24.8,20.3,0000.0,0000.89,0001.08,0000.86
2022-05-20 22:46:00,,0823.6,5.00,0.00,23.0,21.9,00.0,32.0,24.8,20.2,0000.0,0000.90,0001.08,0000.86
2022-05-20 22:47:00,,0823.7,4.99,0.00,23.0,21.9,00.0,32.0,24.8,20.3,0000.0,0000.91,0001.10,0000.88
2022-05-20 22:48:00,,0823.7,5.00,0.00,23.0,21.9,00.0,32.0,24.8,20.2,0000.0,0000.92,0001.10,0000.89
2022-05-20 22:49:00,,0823.7,5.00,0.00,23.0,21.9,00.0,32.0,24.8,20.3,0000.0,0000.95,0001.14,0000.90
2022-05-20 22:50:00,,0823.7,5.00,0.00,23.0,21.9,00.0,32.0,24.8,20.3,0000.0,0000.96,0001.14,0000.91
2022-05-20 22:51:00,,0823.8,5.01,0.00,23.0,21.9,00.0,32.0,24.8,20.3,0000.0,0000.96,0001.13,0000.92
2022-05-20 22:52:00,,0823.9,5.00,0.00,22.9,21.9,00.0,32.0,24.8,20.3,0000.0,0000.97,0001.14,0000.93
2022-05-20 22:53:00,,0824.0,5.00,0.00,22.9,21.8,00.0,32.0,24.8,20.3,0000.0,0000.97,0001.13,0000.93
2022-05-20 22:54:00,,0824.0,4.99,0.00,22.9,21.8,00.0,32.0,24.8,20.3,0000.0,0000.96,0001.10,0000.93
2022-05-20 22:55:00,,0824.0,5.00,0.00,22.9,21.8,00.0,32.0,24.7,20.3,0000.0,0000.98,0001.13,0000.95
2022-05-20 22:56:00,,0824.0,4.99,0.00,22.9,21.8,00.0,31.9,24.7,20.4,0000.0,0001.02,0001.17,0000.99
2022-05-20 22:57:00,,0824.0,4.99,0.00,22.9,21.8,00.0,31.9,24.7,20.4,0000.0,0001.06,0001.22,0001.03
2022-05-20 22:58:00,,0824.0,5.00,0.00,22.9,21.8,00.0,31.9,24.7,20.4,0000.0,0001.10,0001.26,0001.06
2022-05-20 22:59:00,,0824.1,5.00,0.00,22.9,21.8,00.0,31.9,24.7,20.4,0000.0,0001.11,0001.28,0001.08
